loading
|

OBJECT B, 61239

Orbit data source: Space-Track

OBJECT B, 61239 is a Chinese satellite in SSO that was launched on Tue, 24 Sep 2024 UTC via a LIJIAN-1 launch vehicle from the Jiuquan Satellite Launch Center, China (JSC). Unknown objects in Earth's orbit typically refer to objects detected orbiting the Earth but have not yet been identified or cataloged. These objects could be anything from previously untracked satellites, spent rocket stages, debris from satellite collisions, or even natural meteoroids temporarily captured by Earth's gravity.

Loading next visibility...
Next conjunction unknown
Loading greatness...
OBJECT B details
Identifier
61239, 2024-174B
Orbit
SSO
Last TLE update11 hours ago
Origin
Flag of CNZHWK/JIG (CN / PRC)
ManufacturerZHWK/HARGW
MissionOperational spacecraft
Bus & MotorZK1, Unknown motor
Mass~250 kg wet, ~250 kg dry
Launch date (UTC)
2024-09-24 (3 weeks ago)
Launch vehicle
LIJIAN-1
Launch site
Jiuquan Satellite Launch Center, China (JSC)
Object typeUnknown
Shape & HBRUnknown
Radar Cross SectionMedium (>0.1 m² and <1 m²)

Expand to show TLE details & history

TLE from 11 hours ago
0 OBJECT B
1 61239U 24174B   24288.16011811  .00011017  00000-0  56185-3 0  9990
2 61239  97.4557 293.1245 0014607 212.5459 147.4875 15.16824445  2909
Epoch: 2024-10-14T03:50Z
Definitive object data (Epoch: 2024-10-14T03:50:34.204Z)
Latitude-0.00005°
Longitude-147.70926°
Altitude527.027 km
Speed7.595 km/s
True Right ascension19h 32m 29s
True Declination0° 00' 00"
Sunlit
Object was in daylight at TLE epoch
Predictive object data (real-time)
Latitude-64.27658°
Longitude-131.59398°
Altitude538.898 km
Speed7.592 km/s
Apparent Right ascension20h 58m 54s
Apparent Declination-52° 30' 20"
Sunlit
Object is in daylight
Predictive observer data (real-time)
Local Sidereal Time09:12:22
Azimuth170.714° S
Elevation-77.201°
Doppler factor1
Orbital elements
Apogee522.482 km
Perigee502.352 km
Semi-major axis6,890.554 km
Eccentricity0.0014607
Inclination97.4557°
RAAN293.1245°
Arg. of periapsis212.5459°
True anomaly147.57733°
Mean anomaly147.4875°
Eccentric anomaly147.53243°
Mean motion3.79456 °/min
BSTAR0.00056185
Period94.87 mins
No data available
No data available

OBJECT B Visibility forecast

Observer location: 39.9160978°, -105.1181434

Span
Click to sort rows by Start time (UTC) header in descending order
Start Az.
Max El. time (UTC)
Max El. Az.
Max El.
End time (UTC)
End Az.
6 mins2024-10-15 00:33:18.233Z168.179° S2024-10-15 00:36:18.233Z331.001° NNW44.662°2024-10-15 00:39:18.233Z347.238° N
5 mins2024-10-15 13:40:18.233Z350.82° N2024-10-15 13:42:18.233Z274.169° WNW38.311°2024-10-15 13:45:18.233Z210.168° SW